Location: Cuzcurrita-R�o Tir�n
(42.5415°N, 2.9642°W)
Time: 18:35:25
(UTC+00:00)

GENESIS II - Pass Details

Date: 17 January 2021
Orbit: 496 x 529 km, 64.5° (Epoch: 02 March)

Event Time Altitude Azimuth Distance (km) Brightness Sun altitude
Rises 18:17:03 0° 217° (SW) 2,654 8.7 -12.9°
Reaches altitude 10° 18:19:14 10° 218° (SW) 1,770 7.8 -13.2°
Maximum altitude 18:23:12 75° 304° (NW) 552 4.4 -13.9°
Enters shadow 18:26:22 16° 30° (NNE) 1,454 6.1 -14.5°
